| time (UTC) | temp F | wind direction | speed knots | gust knots | rain 1hr in | rain 24hr in | rain mn in | humidity % | barometer mb |
| 20260505100709 | 0 | 0.0 | 0.0 | 0.00 | 0.00 | 0.00 | 1014.7 | ||
| 20260505093810 | 0 | 0.0 | 0.0 | 0.00 | 0.00 | 0.00 | 1014.7 | ||
| 20260505091640 | 49 | 135 | 0.0 | 0.0 | 0.00 | 0.00 | 0.00 | 76 | 1014.7 |
| 20260505091008 | 49 | 135 | 0.0 | 0.0 | 0.00 | 0.00 | 0.00 | 75 | 1014.7 |
| 20260505090510 | 0 | 0.0 | 0.0 | 0.00 | 0.00 | 0.00 | 1014.7 | ||
| 20260505083606 | 50 | 135 | 0.0 | 0.0 | 0.00 | 0.00 | 0.00 | 73 | 1014.7 |
| 20260505082809 | 0 | 0.0 | 0.0 | 0.00 | 0.00 | 0.00 | 1014.7 | ||
| 20260505080139 | 0 | 0.0 | 0.0 | 0.00 | 0.00 | 0.00 | 1014.4 | ||
| 20260505064638 | 55 | 135 | 0.9 | 0.0 | 0.00 | 0.00 | 0.00 | 64 | 1014.4 |
| 20260505063657 | 55 | 135 | 0.9 | 1.7 | 0.00 | 0.00 | 0.00 | 64 | 1014.4 |
| 20260505063135 | 55 | 135 | 1.7 | 1.7 | 0.00 | 0.00 | 0.00 | 65 | 1014.4 |
| 20260505062536 | 0 | 0.0 | 0.0 | 0.00 | 0.00 | 0.00 | 1014.4 | ||
| 20260505055834 | 0 | 0.0 | 0.0 | 0.00 | 0.00 | 0.00 | 1014.4 | ||
| 20260505053404 | 59 | 135 | 1.7 | 1.7 | 0.00 | 0.00 | 0.00 | 56 | 1014.7 |
| 20260505052906 | 61 | 135 | 3.5 | 3.5 | 0.00 | 0.00 | 0.00 | 53 | 1014.4 |
| 20260505051806 | 61 | 135 | 2.6 | 2.6 | 0.00 | 0.00 | 0.00 | 53 | 1014.4 |
| 20260505050603 | 60 | 135 | 0.0 | 0.0 | 0.00 | 0.00 | 0.00 | 54 | 1014.7 |
| 20260505034803 | 61 | 247 | 1.7 | 3.5 | 0.00 | 0.00 | 0.00 | 52 | 1014.7 |
| 20260505034539 | 61 | 135 | 0.0 | 0.0 | 0.00 | 0.00 | 0.00 | 52 | 1014.7 |
| 20260505032831 | 62 | 135 | 5.2 | 6.1 | 0.00 | 0.00 | 0.00 | 51 | 1014.7 |
| 20260505032234 | 62 | 135 | 2.6 | 2.6 | 0.00 | 0.00 | 0.00 | 51 | 1014.7 |
| 20260505030904 | 0 | 0.0 | 0.0 | 0.00 | 0.00 | 0.00 | 1014.7 | ||
| 20260505025526 | 63 | 135 | 1.7 | 2.6 | 0.00 | 0.00 | 0.00 | 52 | 1015.2 |
| 20260505025024 | 63 | 135 | 2.6 | 2.6 | 0.00 | 0.00 | 0.00 | 52 | 1015.2 |
| 20260505024504 | 0 | 0.0 | 0.0 | 0.00 | 0.00 | 0.00 | 1015.2 | ||
| 20260505022312 | 63 | 135 | 0.9 | 1.7 | 0.00 | 0.00 | 0.00 | 54 | 1014.7 |
| 20260505021801 | 63 | 135 | 1.7 | 1.7 | 0.00 | 0.00 | 0.00 | 54 | 1014.7 |
| 20260505021302 | 0 | 0.0 | 0.0 | 0.00 | 0.00 | 0.00 | 1014.7 | ||
| 20260505014659 | 63 | 135 | 1.7 | 1.7 | 0.00 | 0.00 | 0.00 | 53 | 1014.4 |
| 20260505014032 | 0 | 0.0 | 0.0 | 0.00 | 0.00 | 0.00 | 1014.4 | ||
| 20260505012300 | 64 | 135 | 0.9 | 2.6 | 0.00 | 0.00 | 0.00 | 51 | 1014.1 |
| 20260505011730 | 64 | 292 | 1.7 | 2.6 | 0.00 | 0.00 | 0.00 | 51 | 1014.1 |
| 20260505011231 | 65 | 135 | 2.6 | 2.6 | 0.00 | 0.00 | 0.00 | 50 | 1014.1 |
| 20260505010400 | 0 | 0.0 | 0.0 | 0.00 | 0.00 | 0.00 | 1014.1 | ||
| 20260505005134 | 66 | 135 | 1.7 | 2.6 | 0.00 | 0.00 | 0.00 | 49 | 1013.7 |
| 20260505004631 | 0 | 0.0 | 0.0 | 0.00 | 0.00 | 0.00 | 1013.7 | ||
| 20260505002900 | 67 | 135 | 1.7 | 2.6 | 0.00 | 0.00 | 0.00 | 46 | 1013.3 |
| 20260505002035 | 67 | 135 | 0.9 | 2.6 | 0.00 | 0.00 | 0.00 | 46 | 1013.3 |
| 20260505001531 | 67 | 135 | 0.0 | 0.0 | 0.00 | 0.00 | 0.00 | 46 | 1013.3 |
| 20260505001031 | 0 | 0.0 | 0.0 | 0.00 | 0.00 | 0.00 | 1013.3 | ||
| 20260504235459 | 68 | 135 | 1.7 | 1.7 | 0.00 | 0.00 | 0.00 | 45 | 1013.3 |
| 20260504234459 | 68 | 135 | 0.9 | 1.7 | 0.00 | 0.00 | 0.00 | 44 | 1013.0 |
| 20260504233529 | 68 | 135 | 0.0 | 0.0 | 0.00 | 0.00 | 0.00 | 44 | 1013.0 |
| 20260504233231 | 0 | 0.0 | 0.0 | 0.00 | 0.00 | 0.00 | 1013.0 | ||
| 20260504231002 | 0 | 0.0 | 0.0 | 0.00 | 0.00 | 0.00 | 1012.6 | ||
| 20260504224101 | 71 | 135 | 2.6 | 4.3 | 0.00 | 0.00 | 0.00 | 40 | 1012.6 |
| 20260504223558 | 0 | 0.0 | 0.0 | 0.00 | 0.00 | 0.00 | 1012.6 | ||
| 20260504220428 | 0 | 0.0 | 0.0 | 0.00 | 0.00 | 0.00 | 1012.6 | ||
| 20260504213547 | 76 | 135 | 1.7 | 4.3 | 0.00 | 0.00 | 0.00 | 33 | 1012.6 |
| 20260504213028 | 75 | 135 | 0.9 | 0.9 | 0.00 | 0.00 | 0.00 | 32 | 1012.6 |
| 20260504212446 | 75 | 135 | 0.9 | 0.9 | 0.00 | 0.00 | 0.00 | 32 | 1012.6 |
| 20260504211927 | 0 | 0.0 | 0.0 | 0.00 | 0.00 | 0.00 | 1012.6 | ||
| 20260504210228 | 76 | 135 | 0.9 | 0.9 | 0.00 | 0.00 | 0.00 | 30 | 1012.6 |
| 20260504205957 | 0 | 0.0 | 0.0 | 0.00 | 0.00 | 0.00 | 1012.6 | ||
| 20260504204027 | 0 | 0.0 | 0.0 | 0.00 | 0.00 | 0.00 | 1013.0 | ||
| 20260504201358 | 0 | 0.0 | 0.0 | 0.00 | 0.00 | 0.00 | 1013.0 | ||
| 20260504191656 | 0 | 0.0 | 0.0 | 0.00 | 0.00 | 0.00 | 1014.1 | ||
| 20260504190202 | 76 | 135 | 3.5 | 5.2 | 0.00 | 0.00 | 0.00 | 35 | 1014.1 |
| 20260504185654 | 0 | 0.0 | 0.0 | 0.00 | 0.00 | 0.00 | 1014.1 | ||
| 20260504184341 | 74 | 135 | 1.7 | 2.6 | 0.00 | 0.00 | 0.00 | 37 | 1014.4 |
| 20260504183825 | 75 | 135 | 2.6 | 3.5 | 0.00 | 0.00 | 0.00 | 37 | 1014.4 |
| 20260504182645 | 75 | 135 | 1.7 | 3.5 | 0.00 | 0.00 | 0.00 | 37 | 1014.7 |
| 20260504182125 | 0 | 0.0 | 0.0 | 0.00 | 0.00 | 0.00 | 1014.7 | ||
| 20260504174503 | 72 | 135 | 0.9 | 1.7 | 0.00 | 0.00 | 0.00 | 40 | 1015.2 |
| 20260504173953 | 72 | 135 | 1.7 | 1.7 | 0.00 | 0.00 | 0.00 | 40 | 1015.2 |
| 20260504173456 | 0 | 0.0 | 0.0 | 0.00 | 0.00 | 0.00 | 1015.2 | ||
| 20260504171823 | 72 | 135 | 0.0 | 0.9 | 0.00 | 0.00 | 0.00 | 42 | 1015.2 |
| 20260504171323 | 0 | 0.0 | 0.0 | 0.00 | 0.00 | 0.00 | 1015.5 | ||
| 20260504160356 | 67 | 135 | 0.9 | 1.7 | 0.00 | 0.00 | 0.00 | 48 | 1016.6 |
| 20260504110117 | 0 | 0.0 | 0.0 | 0.00 | 0.00 | 0.00 | 1015.9 |